SL-16 DEB, 28354

Orbit data source: Space-Track

SL-16 DEB, 28354 is space debris in LEO originally from a launch on Thu, 10 Jun 2004 UTC launched from the Tyuratam Missile And Space Complex (TTMTR). Debris objects in space refer to the collection of defunct objects orbiting the Earth. Examples of debris include non-operational satellites, rocket bodies, and fragments generated from explosions, collisions, or faulty payload assembly.

Loading next visibility...
Identifier
28354, 2004-021C
Orbit
LEO
Country
Flag of CISCIS
Related business
Manufacturer
Yuzhnoe
Mission
Spacecraft
Bus & Motor
SEP MOTOR COVER, Unknown motor
Mass
~1 kg wet, ~1 kg dry
Launch date (UTC)
2004-06-10 (22 years ago)
Launch vehicle
Unknown
Launch site
Tyuratam Missile And Space Complex (TTMTR)
Object type
Payload
Rocket body
Debris
Shape & HBR
Cone, 0.5 m
Radar Cross Section
0.635 m², Small (<0.1 m²)

Expand to show TLE details & history
Last TLE update: 15 hours ago

TLE from 15 hours ago
0 SL-16 DEB
1 28354U 04021C   26119.03664848  .00000154  00000-0  19130-3 0  9994
2 28354  70.9543 241.0371 0219179  63.2162 299.1173 13.69046754 92546
Epoch: 2026-04-29T00:52Z
TLE epoch observation values (Epoch: 2026-04-29T00:52:46.428Z)
Latitude
-0.00009°
Longitude
10.84025°
Altitude
929.358 km
Speed
7.425 km/s
True Right ascension
16h 04m 08s
True Declination
0° 00' 00"
Sunlit
Object was in full shadow at epoch
Visualization orbit readout
Latitude
Unknown
Longitude
Unknown
Altitude
Unknown
Speed
Unknown
Apparent Right ascension
Unknown
Apparent Declination
Unknown
Sunlit
N/A
Visualization observer readout
Local Sidereal Time
23:08:07
Azimuth
Unknown
Elevation
Unknown
Doppler factor
Unknown
Orbital elements
Apogee altitude
1,162.703 km
Perigee altitude
839.234 km
Semi-major axis
7,379.105 km
Eccentricity
0.02192
Inclination
70.9543°
RAAN
241.0371°
Arg. of periapsis
63.2162°
True anomaly
296.89403°
Mean anomaly
299.1173°
Eccentric anomaly
298.00858°
Mean motion
3.42403 °/min
Orbital period
105.14 mins
BSTAR
0.0001913
Loading maneuver chart data...
Computing Atmospheric mass density...
Loading historical data...
Loading historical data...
Loading historical data...
Loading historical data...
Loading historical data...
Loading historical data...
Loading historical data...

Documentation

Showing up to 5 results
|